Regional Weather Roundup
Issued by NWS Goodland, KS

Home | Current Version | Previous Version | Text Only | Print | Product List | Glossary Off
Versions: 1 2 3 4 5 6 7 8 9 10 11 12 13 14 15 16 17 18 19 20 21 22 23 24 25 26 27 28 29 30 31 32 33 34 35 36 37 38 39 40 41 42 43 44 45 46 47 48 49 50

000
ASUS43 KGLD 291659
RWRGLD

GOODLAND FORECAST AREA HOURLY WEATHER ROUNDUP
NATIONAL WEATHER SERVICE GOODLAND KS
1100 AM MDT FRI MAY 29 2015

...OFFICIAL OBSERVATIONS...

CITY           SKY/WX    TMP DP  RH WIND       PRES   REMARKS
GOODLAND KS    MOSUNNY   68  54  60 N14       30.11R
HILL CITY KS   MOSUNNY   73  56  54 N12       30.02R
IMPERIAL NEB   MOSUNNY   68  54  60 NW17      30.09R
MCCOOK NEB     PTSUNNY   72  55  55 NW14      30.04R
AKRON CO       MOSUNNY   62  51  67 N18       30.17S
BURLINGTON CO  MOSUNNY   67  50  54 N16G25    30.13S
LIMON CO       SUNNY     61  47  59 N20       30.20R
$$

...UNOFFICIAL OBSERVATIONS...

CITY           SKY/WX    TMP DP  RH WIND       PRES   REMARKS
COLBY KS       PTSUNNY   70  57  64 NW13      30.09S
GOVE KS          N/A     70  32  24 MISG        N/A
LENORA KS        N/A     71  32  23 MISG        N/A
NORTON KS      SUNNY     73  52  46 NW12      30.01R
SHARON SPRINGS   N/A     67  58  72 MISG        N/A
KIT CARSON CO    N/A     67  50  53 MISG        N/A
$$


USA.gov is the U.S. government's official web portal to all federal, state and local government web resources and services.